This is the latest recevied weather packets stored in our database for station/object KB3FKJ. If no packets are shown the sender has not sent any weather packets the latest 10 day(s).
| Time | Temp. | Humidity | Pressure | Rain* | Wind** | Luminosity | Snow |
|---|---|---|---|---|---|---|---|
| 1777671616 | 8.33° C | 93% | 1010.8 hPa | 0 mm | - | 35 W/m² | - |
| 1777671313 | 8.33° C | 93% | 1010.6 hPa | 0 mm | - | 40 W/m² | - |
| 1777671009 | 8.33° C | 92% | 1010.9 hPa | 0 mm | - | 44 W/m² | - |
| 1777670705 | 8.33° C | 93% | 1010.9 hPa | 0 mm | - | 54 W/m² | - |
| 1777670403 | 8.33° C | 93% | 1010.7 hPa | 0 mm | - | 58 W/m² | - |
| 1777670099 | 8.33° C | 93% | 1011 hPa | 0 mm | - | 64 W/m² | - |
| 1777669797 | 7.78° C | 93% | 1010.9 hPa | 0 mm | - | 63 W/m² | - |
| 1777669493 | 8.33° C | 93% | 1010.9 hPa | 0 mm | - | 42 W/m² | - |
| 1777669189 | 8.33° C | 92% | 1010.9 hPa | 0 mm | - | 37 W/m² | - |
| 1777668886 | 8.33° C | 92% | 1010.9 hPa | 1.78 mm | - | 66 W/m² | - |
| 1777668584 | 8.33° C | 92% | 1010.9 hPa | 1.78 mm | - | 111 W/m² | - |
| 1777668280 | 8.33° C | 92% | 1010.9 hPa | 0 mm | - | 73 W/m² | - |
| 1777667976 | 7.78° C | 92% | 1010.9 hPa | 1.78 mm | - | 66 W/m² | - |
| 1777667673 | 7.78° C | 92% | 1010.8 hPa | 1.78 mm | - | 48 W/m² | - |
| 1777667371 | 7.78° C | 91% | 1010.9 hPa | 0 mm | - | 24 W/m² | - |
| 1777667068 | 7.78° C | 91% | 1011 hPa | 1.27 mm | - | 15 W/m² | - |
| 1777666764 | 7.78° C | 90% | 1011 hPa | 1.27 mm | - | 20 W/m² | - |
| 1777666461 | 8.33° C | 88% | 1010.8 hPa | 1.78 mm | - | 28 W/m² | - |
| 1777666158 | 8.89° C | 86% | 1010.8 hPa | 1.78 mm | - | 42 W/m² | - |
| 1777665855 | 8.89° C | 84% | 1010.8 hPa | 0 mm | - | 34 W/m² | - |
| 1777665553 | 8.89° C | 82% | 1010.5 hPa | 0 mm | - | 25 W/m² | - |
| 1777665249 | 9.44° C | 80% | 1010.6 hPa | 0 mm | - | 42 W/m² | - |
| 1777664944 | 9.44° C | 79% | 1010.6 hPa | 0 mm | - | 24 W/m² | - |
| 1777664641 | 10° C | 76% | 1010.8 hPa | 0 mm | - | 29 W/m² | - |
| 1777664336 | 10.56° C | 75% | 1010.6 hPa | 0 mm | - | 27 W/m² | - |
* Rain latest hour (hover to see other rain measurements)
** Current wind speed in m/s (hover to see current wind gust speed)